Wind_Speed
5 4 4 3 2 2 3 4 4 5 4 4 4 5 5 5 4 5 6 7 7 9 11 10 10 10 11 12 14 16 16 17 17 16 15 13 12 11 9 9 8 6 5 4 3 2 1 6 11
5 5 4 3 2 1 2 3 4 5 5 4 3 4 4 4 3 4 6 5 5 6 9 10 10 10 10 11 12 14 15 15 15 15 15 14 12 11 9 8 7 6 5 4 3 3 2 3 8
5 6 7 7 5 3 2 3 5 6 6 5 3 3 4 3 1 2 5 5 4 3 5 7 9 9 9 9 10 11 13 14 14 14 14 14 13 12 10 8 7 6 5 3 3 3 3 1 5
5 7 7 7 6 5 4 4 5 6 7 7 4 3 4 4 2 1 4 7 6 3 2 4 6 8 8 7 8 8 10 12 14 14 14 14 14 13 12 10 9 7 6 4 3 3 3 1 3
4 4 4 4 4 4 4 4 4 6 7 7 6 4 4 4 3 2 3 6 7 6 3 2 3 6 6 6 5 6 6 7 10 11 11 12 13 14 14 13 12 10 9 7 5 4 3 2 1
2 2 2 2 2 2 2 3 4 5 6 6 6 6 5 5 5 4 4 5 7 7 5 3 2 3 4 5 4 3 4 3 4 6 7 8 10 12 14 15 14 13 12 11 9 6 5 4 2
2 2 2 2 1 1 1 2 3 4 5 6 6 6 6 5 6 6 5 5 6 7 7 6 4 3 2 3 3 3 2 1 1 2 3 3 5 8 11 13 14 14 13 13 12 9 7 5 4
4 4 4 3 2 1 1 1 1 2 3 4 5 6 5 5 5 6 6 4 4 5 6 7 8 6 5 3 3 2 2 1 1 2 2 2 2 3 5 8 12 13 13 12 11 10 8 6 4
7 7 6 6 4 3 3 2 2 3 3 3 3 4 5 5 4 4 5 5 2 2 4 6 9 9 8 7 6 5 3 3 2 3 3 2 2 2 2 4 7 9 10 9 10 10 8 6 3
10 10 9 8 7 6 6 6 5 5 5 5 5 4 4 4 3 2 2 2 2 0 2 5 7 10 11 11 11 9 7 6 5 4 4 4 3 3 3 2 3 5 6 6 6 7 8 6 3
13 12 11 11 11 10 10 10 10 10 9 8 8 8 7 6 5 4 3 2 1 2 3 5 7 10 13 14 14 12 10 9 7 7 8 7 7 5 4 3 3 3 3 2 2 2 3 4 3
15 15 14 14 14 15 15 15 15 15 14 13 12 12 11 11 10 8 8 7 6 6 6 7 8 10 13 14 15 14 13 11 10 10 11 11 10 8 7 7 5 5 5 5 5 4 3 3 2
17 17 17 17 17 18 19 19 19 20 18 16 15 15 15 15 15 14 13 12 11 11 10 10 11 12 13 14 15 15 15 15 15 14 14 14 12 11 10 10 9 8 8 8 9 8 6 5 6
19 20 20 21 22 22 23 23 24 23 21 20 19 18 18 19 19 19 19 18 17 16 15 15 15 15 15 15 16 16 17 17 18 18 17 17 15 13 12 12 11 11 12 13 13 13 11 9 8
23 23 24 25 26 26 27 30 29 27 26 25 24 23 22 23 23 24 24 23 22 21 19 19 18 18 18 17 18 19 19 20 20 20 20 19 18 15 14 14 13 14 15 17 17 17 16 14 13
26 27 29 30 31 31 32 36 33 32 31 30 29 28 27 26 27 27 28 28 27 26 24 22 21 21 21 19 19 20 20 20 20 20 20 20 19 18 17 17 17 18 19 20 19 19 18 18 18
30 32 34 36 35 36 37 40 38 37 36 35 35 34 32 31 31 30 31 31 31 30 28 27 25 24 23 22 21 21 21 21 21 21 21 21 21 20 19 19 20 21 21 21 20 19 19 20 21
34 36 38 40 40 40 42 43 43 42 41 40 39 39 38 36 36 35 34 33 33 33 32 31 29 28 27 26 25 24 23 24 24 24 25 25 25 24 22 21 22 22 22 22 21 20 21 22 23
36 38 40 42 42 42 44 45 45 44 43 43 42 41 40 40 39 39 38 37 36 35 35 35 34 33 32 31 31 29 27 26 27 28 29 29 29 26 24 22 22 23 23 22 22 22 23 24 24
36 38 39 42 42 42 43 44 43 42 42 41 40 39 39 39 39 39 39 40 39 39 38 38 37 36 35 35 36 35 32 30 30 32 34 35 32 29 25 24 23 22 22 22 22 23 24 23 23
38 39 40 42 42 42 42 43 41 39 38 36 35 34 33 33 34 35 37 38 39 40 40 40 39 38 37 39 40 39 36 33 32 32 35 36 34 31 27 25 23 22 22 23 24 24 24 23 23
41 42 42 42 41 41 40 39 40 35 35 33 32 31 30 28 28 29 31 35 37 39 40 40 40 39 39 41 42 41 39 37 35 33 34 36 35 32 29 26 24 23 23 24 25 24 24 24 25
46 47 46 45 44 44 43 42 43 39 37 36 35 34 32 31 30 29 30 32 35 38 41 41 42 42 42 43 45 44 42 44 42 38 36 37 36 33 30 26 24 24 24 25 25 25 24 25 26
43 45 47 47 46 47 42 41 42 42 38 37 36 36 35 34 34 33 33 34 35 38 41 42 43 44 45 46 45 45 45 47 47 44 40 38 37 33 30 26 24 24 24 25 25 25 25 26 26
34 36 39 40 39 39 40 40 43 41 38 36 35 35 36 36 37 37 37 37 37 38 41 42 42 44 44 44 45 46 47 48 49 47 44 40 37 33 30 26 24 24 24 24 24 25 25 25 26
28 27 27 27 25 27 30 32 33 32 32 32 32 33 33 34 36 37 37 37 37 38 39 41 41 41 40 41 43 46 48 50 50 50 47 41 35 31 26 23 23 24 24 24 25 26 26 25 25
24 21 17 14 14 18 21 25 25 24 26 27 28 28 28 29 29 30 32 32 32 33 35 37 38 37 37 38 40 43 46 49 50 50 46 38 31 26 21 20 22 25 25 26 26 26 26 25 24
23 21 16 10 6 4 6 11 16 17 18 18 18 18 18 19 20 20 21 21 22 23 26 30 33 34 34 35 38 41 43 45 46 45 39 32 26 21 19 21 24 26 26 26 26 25 25 25 24
21 20 19 16 10 6 2 2 4 6 8 9 9 9 8 8 7 9 11 13 13 15 18 22 24 26 28 30 33 35 34 32 30 28 24 20 17 16 19 22 24 25 25 25 24 23 23 23 24
22 20 19 17 14 10 7 6 5 3 3 4 6 7 8 6 4 4 4 5 7 9 11 13 15 19 21 21 21 21 19 16 14 13 12 10 11 13 17 20 22 22 23 23 22 22 22 22 23
Wind_Direction
95 71 64 69 67 63 57 44 47 42 52 63 65 67 84 114 143 143 138 119 101 85 83 95 109 107 97 86 73 66 67 72 77 79 78 75 73 69 63 57 56 57 61 60 45 20 289 215 211
89 75 69 58 57 42 23 22 27 26 31 32 51 65 74 90 114 148 160 148 123 96 83 90 104 109 102 92 81 70 67 72 77 79 79 77 75 72 67 59 54 53 54 53 36 24 8 219 214
100 92 76 67 67 69 53 22 17 15 18 13 19 52 65 65 85 157 179 184 165 122 88 86 96 102 102 98 90 79 72 72 75 79 80 79 77 73 68 61 56 53 52 49 33 24 21 160 202
113 104 86 71 62 61 54 30 19 12 12 12 18 39 61 58 62 142 183 194 190 173 122 92 93 95 98 102 102 95 85 76 75 79 81 82 81 75 70 65 59 53 46 40 28 18 15 61 185
125 117 102 71 45 45 36 20 17 12 13 13 22 37 45 49 53 78 153 186 189 186 174 138 101 95 97 103 110 113 103 85 77 77 78 79 81 79 73 66 59 54 48 39 28 17 13 26 182
156 144 136 86 44 41 23 25 20 20 30 32 33 37 38 43 48 68 106 156 178 183 186 188 160 117 106 107 110 122 130 103 77 72 72 75 78 78 73 66 56 51 49 46 37 25 17 24 42
241 223 185 153 67 52 41 43 31 35 41 43 41 37 35 41 52 73 93 121 156 177 192 202 206 198 169 134 122 124 138 141 48 41 50 64 74 77 75 68 58 49 47 48 44 35 26 22 30
254 250 226 220 228 211 160 4 350 359 8 21 32 37 37 36 51 67 75 98 142 175 196 210 219 225 228 218 187 163 167 140 337 339 349 358 32 65 74 69 62 54 49 49 49 44 39 33 25
251 252 247 240 236 227 230 265 284 299 315 323 342 7 15 22 30 55 67 74 108 186 214 224 230 235 240 242 238 232 226 247 296 318 327 328 330 345 23 59 64 57 52 50 52 50 47 45 36
241 245 248 248 244 237 233 240 253 266 276 286 293 304 323 337 342 359 52 64 61 334 260 255 247 245 245 245 245 244 241 250 270 282 293 297 299 313 328 355 40 49 50 48 50 52 49 46 43
235 238 241 242 245 243 239 238 244 250 256 264 274 276 283 291 297 296 289 279 279 283 276 269 259 253 249 247 246 244 239 242 256 267 272 277 278 280 285 298 325 357 7 6 15 28 31 33 33
235 236 236 240 248 249 246 243 244 247 251 255 259 266 272 276 279 278 275 270 264 263 266 266 264 258 251 247 245 243 241 244 252 262 267 270 274 273 269 269 278 301 320 313 299 300 315 318 304
241 242 243 245 249 253 254 251 249 248 248 251 258 263 267 271 273 274 274 271 266 265 265 265 263 262 256 248 244 244 246 250 253 259 267 269 268 266 263 260 266 280 293 296 286 279 289 296 284
243 245 246 248 249 251 254 255 254 254 254 257 263 267 270 273 275 276 276 276 274 272 270 269 263 259 258 254 248 246 249 253 257 260 265 265 262 260 257 256 263 274 282 285 282 274 280 292 297
246 246 248 249 250 251 253 255 256 259 260 263 265 268 270 273 275 277 277 278 279 280 280 278 271 261 257 256 254 251 252 254 256 259 259 258 256 254 253 256 263 271 276 279 281 278 281 293 302
252 252 253 252 253 254 256 258 258 261 263 265 266 267 268 269 271 273 276 279 281 282 284 283 279 270 259 256 258 258 256 255 254 252 250 251 252 251 254 259 266 270 273 275 280 280 283 292 297
259 260 259 259 258 260 260 262 263 263 264 265 266 266 265 265 266 267 270 274 279 282 283 283 281 277 267 259 258 261 259 257 254 251 249 249 251 253 257 263 268 270 272 275 279 280 283 290 295
265 264 264 265 264 264 264 264 265 265 265 264 264 264 263 262 262 262 263 265 270 275 277 279 279 278 274 266 261 260 259 259 258 256 255 253 253 255 259 265 268 271 273 274 277 280 284 290 293
269 269 269 268 267 266 266 266 266 265 265 264 263 263 262 261 260 259 259 259 260 263 267 271 273 275 275 271 266 263 260 261 263 264 260 256 255 255 257 261 266 269 272 275 279 282 286 290 291
275 274 273 273 271 270 269 269 269 268 267 266 265 263 262 261 261 260 259 258 257 257 259 263 266 270 272 271 269 267 264 263 265 270 267 258 253 254 256 259 262 267 271 277 281 284 288 290 290
279 277 275 275 274 273 272 272 270 269 268 266 265 264 262 261 262 262 261 260 258 256 256 257 260 263 266 268 269 269 267 266 268 273 272 264 252 251 255 259 262 267 272 277 283 287 290 291 289
281 279 277 276 276 276 274 274 271 269 268 267 266 264 264 263 264 266 267 264 259 256 254 253 254 257 259 261 263 265 265 265 266 270 271 266 255 251 253 258 262 267 273 279 285 288 289 288 286
282 279 276 274 272 271 272 272 272 270 270 269 269 268 267 267 268 271 273 271 264 256 251 250 249 251 254 256 257 258 260 262 264 267 269 265 258 254 255 256 261 269 275 280 284 285 285 284 282
286 281 276 272 269 267 267 268 269 269 270 270 270 270 270 271 272 275 278 277 270 260 252 249 248 248 250 253 254 254 257 260 262 264 267 263 259 254 253 255 261 268 273 277 279 280 282 281 279
302 294 286 279 273 269 265 264 265 267 267 267 268 270 271 272 274 278 280 277 272 263 253 249 249 249 252 254 255 255 256 259 263 266 267 262 256 252 251 253 260 266 270 272 273 276 278 278 278
317 309 295 282 268 260 259 258 261 262 261 260 262 265 268 271 275 277 276 274 269 263 255 250 251 252 254 256 256 256 257 260 264 267 266 259 254 250 248 253 260 266 268 270 272 273 272 272 273
344 338 324 306 285 265 257 256 255 255 256 256 257 259 262 266 269 271 273 272 269 264 257 252 252 255 257 259 260 262 264 262 264 266 260 251 245 242 247 257 264 269 272 273 273 272 269 265 265
6 10 11 4 349 301 266 254 255 259 260 256 251 251 255 259 263 269 274 274 273 268 259 254 254 258 261 265 265 267 268 264 262 258 248 239 235 236 246 260 266 269 270 270 270 270 268 262 258
17 25 31 37 43 48 39 340 287 258 246 239 234 231 228 230 244 255 266 268 265 260 253 249 252 258 262 264 266 265 259 255 248 239 228 225 230 241 252 260 264 265 265 265 265 266 266 261 256
24 31 37 41 40 41 44 22 338 312 269 217 184 174 169 171 182 197 218 229 223 219 221 226 235 242 246 249 251 246 239 232 214 208 214 228 241 250 256 260 263 265 265 265 264 263 263 259 255
Height
5916 5916 5916 5917 5918 5918 5918 5920 5920 5920 5920 5919 5918 5917 5916 5916 5916 5918 5915 5913 5913 5913 5912 5912 5912 5912 5912 5911 5911 5910 5909 5908 5907 5905 5904 5903 5902 5901 5900 5899 5898 5897 5897 5897 5896 5895 5895 5896 5897
5916 5916 5917 5918 5918 5918 5918 5919 5919 5920 5920 5919 5918 5917 5916 5915 5914 5914 5913 5913 5913 5913 5913 5913 5912 5912 5912 5912 5912 5912 5911 5910 5909 5908 5906 5905 5903 5902 5901 5900 5899 5898 5897 5897 5896 5896 5895 5895 5896
5917 5917 5918 5918 5918 5918 5919 5919 5919 5919 5919 5919 5918 5917 5916 5915 5913 5913 5913 5913 5913 5913 5913 5913 5913 5913 5913 5913 5913 5913 5913 5912 5911 5910 5908 5906 5905 5903 5902 5901 5900 5899 5898 5897 5897 5896 5896 5895 5895
5917 5918 5919 5920 5919 5919 5918 5918 5918 5919 5919 5918 5918 5917 5916 5914 5913 5912 5912 5912 5913 5913 5913 5914 5914 5913 5914 5914 5914 5914 5914 5913 5913 5911 5910 5908 5907 5906 5904 5903 5901 5900 5899 5898 5897 5897 5896 5896 5895
5917 5918 5920 5920 5920 5919 5918 5918 5918 5918 5918 5918 5918 5917 5916 5915 5913 5912 5911 5911 5912 5913 5913 5914 5914 5914 5914 5914 5915 5915 5915 5915 5914 5913 5912 5910 5909 5908 5906 5905 5903 5901 5899 5898 5898 5897 5897 5896 5896
5917 5918 5920 5919 5920 5919 5919 5918 5917 5918 5918 5917 5917 5916 5916 5915 5913 5912 5911 5911 5912 5912 5913 5914 5914 5914 5914 5915 5915 5915 5915 5915 5915 5914 5913 5912 5910 5909 5908 5907 5905 5903 5901 5899 5898 5897 5897 5896 5896
5917 5918 5918 5919 5919 5919 5919 5918 5917 5917 5917 5917 5916 5916 5915 5915 5913 5912 5911 5911 5911 5912 5912 5913 5913 5914 5914 5914 5915 5915 5915 5915 5914 5914 5913 5913 5911 5910 5909 5908 5906 5904 5902 5901 5899 5898 5897 5897 5896
5915 5917 5917 5917 5918 5919 5919 5918 5917 5916 5916 5917 5916 5916 5915 5915 5913 5912 5911 5911 5911 5911 5911 5911 5912 5912 5913 5914 5914 5914 5914 5913 5913 5913 5913 5912 5911 5910 5909 5908 5907 5905 5904 5902 5900 5898 5897 5896 5896
5914 5916 5915 5916 5917 5917 5917 5917 5917 5916 5916 5915 5915 5915 5915 5914 5913 5912 5911 5910 5910 5910 5910 5910 5910 5911 5912 5912 5913 5913 5913 5912 5912 5912 5911 5911 5910 5909 5908 5908 5907 5906 5904 5902 5901 5899 5897 5896 5896
5912 5913 5913 5914 5914 5915 5916 5916 5916 5915 5915 5914 5914 5914 5913 5913 5912 5911 5910 5909 5908 5908 5908 5908 5908 5909 5909 5910 5910 5911 5911 5911 5911 5911 5910 5910 5909 5908 5907 5907 5906 5905 5904 5902 5901 5900 5898 5896 5895
5908 5909 5910 5910 5911 5912 5913 5913 5913 5913 5912 5912 5912 5912 5911 5911 5910 5910 5909 5908 5907 5907 5907 5906 5906 5906 5906 5907 5907 5908 5908 5909 5909 5908 5908 5907 5907 5906 5906 5905 5905 5904 5903 5902 5900 5899 5898 5897 5895
5906 5906 5907 5907 5908 5908 5909 5909 5909 5909 5909 5909 5909 5909 5908 5908 5907 5907 5907 5907 5906 5905 5905 5904 5904 5904 5903 5904 5904 5904 5905 5906 5906 5905 5905 5904 5904 5904 5903 5903 5902 5902 5901 5901 5900 5898 5897 5896 5895
5904 5904 5904 5904 5904 5904 5904 5904 5904 5904 5905 5905 5905 5905 5905 5905 5904 5904 5904 5904 5904 5903 5902 5902 5901 5901 5901 5901 5901 5901 5902 5902 5903 5903 5902 5901 5901 5901 5900 5900 5899 5899 5898 5898 5897 5896 5895 5894 5894
5900 5900 5899 5899 5900 5899 5899 5899 5898 5899 5900 5901 5902 5902 5901 5901 5901 5900 5900 5900 5900 5900 5900 5899 5898 5898 5898 5898 5898 5897 5897 5898 5898 5899 5899 5898 5897 5897 5896 5896 5896 5895 5895 5894 5894 5893 5892 5892 5891
5895 5895 5895 5894 5894 5894 5894 5892 5893 5894 5895 5896 5897 5897 5897 5897 5896 5895 5895 5896 5896 5896 5896 5896 5895 5894 5894 5894 5894 5893 5892 5892 5893 5894 5894 5894 5893 5893 5892 5892 5892 5892 5891 5890 5890 5890 5889 5889 5888
5889 5890 5889 5888 5888 5888 5889 5885 5888 5887 5888 5889 5890 5891 5891 5891 5891 5890 5890 5890 5890 5891 5891 5891 5890 5889 5889 5889 5889 5888 5887 5887 5887 5888 5888 5889 5889 5889 5888 5888 5888 5888 5887 5886 5886 5885 5885 5885 5884
5884 5883 5882 5881 5881 5880 5880 5877 5880 5880 5881 5881 5882 5883 5884 5884 5884 5885 5884 5884 5883 5884 5884 5884 5884 5884 5884 5884 5884 5883 5883 5882 5882 5882 5883 5884 5884 5884 5884 5884 5883 5883 5883 5883 5882 5882 5882 5881 5880
5877 5876 5874 5873 5872 5872 5870 5868 5870 5871 5872 5872 5873 5873 5875 5876 5876 5877 5878 5878 5877 5877 5877 5877 5877 5877 5877 5878 5878 5878 5878 5877 5877 5877 5878 5878 5878 5879 5878 5878 5878 5878 5878 5878 5878 5878 5878 5877 5876
5869 5867 5865 5863 5862 5862 5859 5858 5859 5860 5861 5861 5862 5863 5864 5866 5867 5868 5869 5870 5871 5870 5869 5869 5870 5870 5871 5871 5871 5872 5872 5872 5872 5872 5872 5872 5872 5873 5873 5873 5873 5873 5873 5873 5873 5872 5872 5871 5870
5860 5858 5856 5853 5852 5851 5849 5848 5849 5850 5850 5850 5852 5853 5854 5855 5856 5858 5859 5861 5862 5863 5863 5862 5863 5864 5864 5864 5864 5864 5865 5865 5865 5865 5865 5864 5865 5867 5867 5868 5868 5868 5867 5867 5867 5867 5865 5864 5864
5850 5848 5845 5843 5841 5840 5839 5838 5839 5839 5839 5840 5841 5842 5844 5846 5847 5848 5849 5851 5852 5854 5855 5855 5856 5857 5857 5856 5856 5856 5857 5858 5858 5858 5858 5858 5858 5860 5861 5862 5862 5862 5862 5862 5862 5861 5860 5859 5858
5839 5836 5834 5832 5831 5829 5829 5828 5827 5829 5829 5830 5832 5833 5835 5837 5838 5840 5840 5841 5843 5844 5846 5847 5848 5849 5849 5849 5849 5849 5849 5850 5851 5852 5852 5851 5852 5853 5855 5856 5856 5857 5857 5856 5856 5855 5855 5853 5852
5826 5824 5821 5820 5819 5818 5818 5818 5818 5819 5820 5821 5823 5824 5826 5828 5830 5831 5832 5833 5833 5834 5835 5837 5838 5840 5840 5840 5840 5842 5841 5841 5842 5843 5844 5845 5846 5847 5848 5849 5850 5851 5851 5851 5850 5850 5849 5848 5846
5812 5809 5806 5805 5805 5805 5808 5807 5806 5809 5810 5812 5813 5815 5817 5819 5821 5822 5823 5824 5824 5825 5826 5827 5828 5830 5831 5832 5833 5834 5834 5833 5832 5834 5836 5838 5839 5840 5841 5842 5843 5844 5845 5845 5844 5843 5842 5841 5840
5801 5796 5792 5790 5791 5793 5794 5795 5793 5798 5800 5802 5803 5805 5807 5809 5811 5812 5813 5814 5814 5815 5816 5818 5819 5821 5822 5824 5825 5826 5826 5825 5825 5826 5828 5830 5831 5832 5833 5835 5836 5837 5838 5838 5837 5836 5836 5835 5834
5794 5787 5782 5780 5780 5781 5780 5782 5783 5786 5788 5791 5793 5795 5797 5799 5801 5802 5803 5804 5804 5805 5806 5808 5810 5812 5814 5816 5817 5818 5818 5818 5818 5819 5820 5822 5822 5824 5825 5828 5829 5830 5830 5830 5829 5829 5828 5828 5827
5790 5781 5775 5772 5770 5771 5772 5773 5775 5777 5779 5781 5783 5786 5788 5790 5792 5793 5794 5795 5795 5796 5797 5799 5802 5803 5805 5807 5808 5808 5809 5809 5810 5811 5812 5813 5813 5815 5818 5820 5822 5823 5823 5822 5821 5821 5820 5820 5819
5790 5781 5775 5771 5768 5768 5769 5769 5770 5771 5772 5774 5775 5778 5780 5783 5785 5787 5787 5788 5788 5789 5790 5792 5794 5796 5798 5799 5799 5799 5799 5800 5801 5802 5803 5805 5806 5809 5812 5814 5815 5816 5815 5814 5813 5813 5812 5812 5812
5792 5785 5778 5773 5770 5769 5769 5771 5768 5768 5768 5769 5771 5773 5776 5779 5781 5783 5783 5783 5783 5783 5783 5785 5787 5789 5791 5792 5792 5792 5792 5793 5794 5795 5797 5799 5801 5804 5807 5809 5809 5809 5808 5806 5805 5805 5805 5804 5804
5795 5788 5782 5778 5775 5772 5770 5774 5768 5768 5767 5768 5769 5772 5775 5778 5779 5780 5780 5780 5779 5779 5779 5780 5782 5784 5785 5786 5787 5787 5788 5789 5790 5791 5793 5795 5798 5800 5802 5803 5802 5802 5801 5799 5798 5797 5797 5797 5797